Theta_e
318 309 308 306 307 310 311 312 312 312 310 309 309 309 310 311 314 318 318 319 319 315 315 316 317 317 318 318 321 327 331 331 331 331 335 339 341 341 342 342 344 345 345 349 350 350 351 352 353 354 355 355 355 356 356 357 359 360 359 359 358 360 361 358 355 354 353 351 353 355 353 352 354 356 358 359 361 360 360 362 365 368 365 365 367 366
315 306 308 310 310 311 311 312 312 310 310 308 308 307 308 310 310 316 318 318 319 315 316 319 316 316 318 320 321 324 329 328 330 331 334 337 340 341 342 342 344 347 349 349 349 350 351 351 352 353 354 355 353 355 355 356 357 360 359 359 359 359 359 358 357 355 355 356 355 354 355 355 356 357 357 358 361 361 360 365 367 368 365 365 367 367
307 304 308 311 312 312 312 311 311 309 307 308 307 308 308 309 312 315 317 317 318 317 315 318 316 317 319 320 321 321 326 330 330 331 333 337 339 341 342 342 344 346 347 347 348 349 349 350 352 354 355 355 355 356 355 356 357 359 358 360 361 360 360 359 359 359 357 359 361 359 358 357 356 360 361 360 361 363 360 363 368 368 366 366 367 368
303 306 310 313 312 311 310 311 310 309 308 306 306 305 305 310 309 308 314 317 317 316 315 318 314 315 318 321 320 321 325 330 330 331 333 336 339 341 342 343 344 345 346 346 348 348 349 350 352 354 354 355 356 356 357 356 356 356 358 359 361 361 361 360 362 361 363 363 365 364 363 362 359 358 362 364 363 364 362 360 366 368 367 367 365 366
306 309 313 312 311 310 309 309 308 306 304 306 306 306 306 308 310 311 312 313 314 315 315 314 312 313 317 317 318 322 324 327 329 331 333 336 339 342 344 345 345 345 347 347 348 349 349 350 351 354 355 356 355 355 356 356 356 356 358 359 361 362 362 363 363 363 365 364 364 363 364 364 362 362 362 361 360 362 363 360 363 365 368 367 365 366
308 313 314 310 310 310 309 307 307 306 303 304 306 306 307 308 308 310 311 310 310 311 315 313 307 309 316 317 317 321 325 325 329 331 333 335 338 341 341 343 346 346 349 349 349 349 350 351 352 354 356 355 356 355 357 357 356 358 358 360 362 362 363 363 364 366 365 363 361 360 358 356 356 356 356 356 356 357 360 356 357 365 367 365 366 366
309 314 312 310 309 309 309 306 308 308 304 303 304 309 308 307 307 307 308 308 304 304 312 316 307 305 315 315 318 321 325 326 330 332 333 336 338 339 341 343 344 345 346 349 350 350 349 351 352 353 355 356 355 356 358 358 358 359 360 362 362 362 363 365 366 367 365 364 363 362 359 357 356 356 357 360 360 359 361 361 358 361 366 368 365 365
311 312 311 311 310 308 307 304 308 309 304 302 309 309 309 307 306 306 307 307 306 311 313 314 311 306 307 313 319 322 323 325 328 331 334 334 339 338 341 341 344 345 346 348 349 350 351 352 352 352 355 355 355 357 358 358 359 361 362 363 363 363 363 365 366 365 365 363 363 362 360 358 358 356 358 361 361 363 365 363 361 361 363 368 368 364
311 309 310 309 309 307 305 307 309 310 306 305 309 310 309 309 307 307 307 306 307 307 305 310 313 307 306 313 319 320 317 321 324 327 332 334 337 340 340 340 342 345 347 347 348 350 350 351 352 353 354 356 357 356 357 358 360 362 364 364 364 363 364 365 367 365 365 364 364 363 361 358 359 360 359 362 363 362 365 365 365 364 364 367 370 367
312 312 312 311 309 306 309 311 311 310 306 309 311 312 311 310 309 308 306 305 306 305 301 306 311 305 306 312 313 317 317 317 320 324 328 334 335 338 339 341 342 345 347 347 348 350 351 352 353 354 355 356 356 357 360 360 361 362 364 365 365 364 364 365 366 366 367 365 364 363 362 361 359 360 360 362 362 364 366 366 367 366 365 363 366 369
312 316 316 313 309 310 311 313 312 312 312 313 311 309 308 308 307 308 307 307 305 299 302 307 309 308 301 309 311 312 314 318 319 321 324 331 336 337 340 341 340 343 346 347 348 349 351 353 354 355 354 356 357 358 358 359 360 361 363 365 365 365 364 365 365 364 365 365 364 363 363 363 362 363 362 361 363 364 365 364 365 366 366 366 363 363
310 310 310 313 315 313 313 310 313 314 314 311 308 306 305 305 307 306 305 307 298 296 304 308 308 308 299 305 312 316 319 320 321 319 321 326 333 336 339 339 341 342 345 347 347 348 350 352 353 354 354 356 357 357 357 358 360 361 363 364 365 366 365 364 362 363 363 362 363 365 365 364 365 365 362 362 362 364 364 364 363 364 365 366 364 366
305 306 310 312 316 313 310 308 310 312 312 309 307 306 300 299 301 296 301 296 296 296 303 306 307 303 302 308 313 315 316 318 322 322 321 323 329 336 339 340 341 342 344 347 348 349 349 350 351 352 354 356 357 357 358 357 358 361 363 365 364 365 365 364 363 362 363 362 362 363 363 365 366 366 365 364 363 365 364 364 363 364 364 366 364 365
302 307 308 309 311 314 312 304 305 305 307 306 304 303 299 296 296 292 296 299 299 302 305 305 308 302 308 311 315 313 316 319 321 323 323 323 324 331 339 341 339 342 343 346 347 348 349 351 352 353 354 355 356 357 356 358 359 360 361 364 364 365 366 365 363 363 363 362 363 365 365 365 365 366 367 365 363 364 365 365 364 363 363 364 364 363
296 297 303 307 304 312 310 308 308 307 306 306 308 305 302 301 298 294 297 294 296 300 304 307 302 300 301 305 314 315 318 319 321 321 323 324 324 327 336 340 339 341 344 346 347 347 349 351 353 353 354 355 355 357 356 357 359 361 361 363 364 365 365 365 365 364 362 361 363 364 365 365 366 365 366 366 365 364 365 364 365 365 364 362 365 363
301 301 306 310 310 311 308 311 312 309 307 308 309 308 303 301 307 299 302 300 300 300 299 303 301 306 305 314 316 319 318 318 319 319 320 321 323 324 328 335 336 338 341 344 346 348 350 352 354 353 354 355 355 357 357 358 359 359 361 363 364 365 366 366 366 364 363 363 363 365 365 364 366 367 366 366 367 366 366 367 366 367 367 365 365 368
303 300 308 309 311 310 309 311 310 312 300 306 307 301 304 310 307 302 303 303 303 301 299 307 304 306 311 311 314 315 315 316 318 318 319 321 322 326 327 333 336 337 341 344 345 347 350 351 354 354 355 355 355 356 356 359 360 361 361 362 363 365 366 366 366 364 363 363 364 364 365 365 365 365 365 364 366 364 367 368 368 366 367 367 367 367
302 302 309 307 305 310 313 312 311 312 312 308 302 305 310 312 310 304 297 301 298 294 297 302 300 303 303 301 312 312 312 314 315 317 318 321 323 324 329 334 337 338 340 344 347 350 351 351 353 353 354 355 356 356 357 359 361 361 361 362 363 364 364 365 365 363 364 364 364 365 365 365 365 364 365 367 367 366 366 367 368 367 366 366 365 366
309 302 305 308 308 310 313 311 309 312 313 309 307 313 304 299 298 304 302 294 295 294 296 300 302 302 305 306 311 311 310 312 315 318 318 318 320 323 328 333 337 339 339 342 345 348 349 350 351 353 353 354 356 358 359 359 359 360 361 361 361 363 363 364 364 365 366 365 364 364 364 364 364 365 365 367 369 369 367 365 366 365 365 366 367 367
308 302 303 309 308 310 310 308 301 305 311 312 313 309 311 308 303 300 301 303 302 297 298 298 301 299 309 309 311 312 314 314 314 315 316 317 319 322 326 329 334 338 339 341 344 346 348 349 351 352 352 352 354 356 357 357 358 357 359 360 361 362 364 364 364 365 364 364 364 364 366 367 367 366 366 367 368 367 366 366 365 366 363 364 366 366
306 309 300 305 310 309 302 306 303 306 303 305 306 305 307 307 310 308 306 302 300 299 298 299 297 304 311 313 312 312 315 317 316 316 318 318 320 321 323 326 332 338 340 341 343 345 347 349 349 351 353 352 353 356 356 356 356 356 357 358 360 361 361 361 362 363 364 364 364 366 366 365 366 366 367 368 368 367 367 367 366 365 365 367 366 366
306 305 300 304 304 303 305 309 309 309 309 306 305 304 306 303 302 299 299 307 303 300 296 298 298 307 308 313 314 314 315 315 317 317 318 320 319 323 323 325 330 336 342 343 342 344 345 349 349 350 352 353 351 352 353 354 354 355 356 357 357 357 359 358 360 363 364 365 364 364 365 366 367 367 368 367 366 366 365 366 366 367 367 364 367 367
311 309 304 302 303 304 307 311 313 313 312 310 309 306 309 307 306 303 296 301 304 303 305 303 300 305 314 315 316 315 315 315 317 317 317 319 322 322 324 325 334 340 341 341 342 342 344 348 350 349 351 352 351 352 352 353 352 353 355 355 356 355 356 357 359 361 364 364 364 364 365 365 366 366 367 365 365 363 364 365 366 367 365 363 364 367
313 306 302 303 307 308 310 312 312 313 311 309 309 310 308 305 306 305 304 307 304 304 300 301 299 304 314 318 317 315 318 316 319 317 318 318 319 322 325 327 330 338 342 339 340 339 343 344 348 350 349 351 352 352 352 352 352 352 353 353 354 354 355 356 357 359 362 363 362 364 364 365 365 364 364 363 363 362 363 363 365 366 365 364 362 364
302 306 304 300 301 302 303 307 307 310 310 307 306 308 309 309 309 308 308 309 303 304 304 300 296 303 313 318 321 318 317 316 316 317 319 319 321 321 324 333 337 343 344 339 338 338 340 341 345 349 350 354 353 351 352 352 352 351 352 352 352 353 354 356 358 358 360 361 361 361 362 362 363 362 363 362 361 362 362 362 363 364 364 364 362 363
305 305 303 298 295 293 292 293 296 300 303 307 309 308 309 308 307 305 301 304 298 306 307 302 302 311 314 320 315 316 315 317 317 318 318 321 323 322 324 333 342 340 344 344 343 339 338 342 346 351 352 353 352 350 353 353 351 350 351 352 352 352 354 355 356 357 359 360 359 360 361 361 361 361 361 361 361 361 361 361 361 362 364 364 363 363
306 308 307 305 303 300 303 306 307 309 306 302 305 307 307 308 309 308 307 303 300 305 304 306 308 309 309 311 312 314 316 315 316 318 318 319 321 331 339 337 334 341 341 339 343 343 344 344 346 350 353 351 349 350 351 350 350 350 352 353 352 353 353 355 356 358 357 359 359 360 360 360 361 361 360 361 361 361 361 360 360 360 362 364 363 363
306 303 305 306 305 304 303 304 305 306 305 305 304 304 307 307 308 306 303 302 310 305 299 307 311 307 309 311 313 314 315 317 317 318 318 320 329 325 326 336 344 336 341 343 346 346 346 347 347 350 353 351 349 350 349 350 349 350 351 351 352 352 352 354 356 356 357 358 359 361 359 360 362 363 363 362 364 363 362 362 361 362 363 364 363 362
303 301 303 302 301 301 302 303 304 305 305 306 306 305 305 306 307 305 306 307 309 304 302 309 311 309 310 312 315 316 317 318 316 318 321 323 322 325 335 329 323 330 338 340 347 351 351 349 351 350 349 350 347 347 349 348 349 351 352 352 353 351 352 355 355 356 356 358 360 361 362 363 363 364 364 364 365 364 364 362 363 363 363 364 364 363
302 301 301 301 299 300 302 302 303 303 304 304 305 305 306 306 306 306 306 307 307 308 309 310 312 310 312 313 315 315 318 317 318 320 321 321 319 323 325 327 322 323 325 332 343 346 354 354 354 354 351 351 347 347 346 348 351 349 350 350 351 352 352 354 355 356 356 356 359 362 363 364 364 365 365 365 364 365 365 363 363 362 363 363 364 365
299 299 299 299 299 300 301 303 302 302 302 302 304 305 306 306 307 307 307 307 308 307 308 308 310 309 314 318 317 318 319 318 319 317 318 321 320 319 320 320 324 323 325 332 344 344 349 354 352 354 353 352 350 348 347 349 351 350 349 349 350 352 352 352 355 355 356 357 360 363 364 365 365 366 365 365 366 366 366 364 364 364 364 364 365 365
300 298 300 299 297 298 300 300 301 301 302 301 302 303 304 304 303 305 305 307 306 306 308 307 306 307 313 316 318 319 318 318 317 317 317 318 318 320 320 321 325 326 327 327 330 341 349 350 352 351 352 351 350 349 348 350 350 349 347 348 349 350 352 352 353 354 358 358 362 364 364 364 366 366 366 366 366 366 367 365 364 364 365 364 364 366
299 297 297 298 295 297 300 300 299 300 300 298 300 303 305 306 307 307 308 309 309 309 306 304 306 312 315 316 314 316 316 316 316 317 318 319 322 321 322 322 322 323 325 328 328 344 340 338 343 353 349 348 348 347 348 350 348 349 350 350 351 353 351 350 352 357 360 360 362 364 366 367 366 366 367 367 366 367 367 366 365 364 364 363 366 366
298 297 296 299 294 297 298 298 299 297 292 295 308 309 308 305 306 305 305 307 310 310 308 311 312 315 315 315 314 315 315 317 318 321 322 322 322 324 323 324 324 325 326 325 327 335 341 343 343 342 346 350 349 345 347 350 347 348 350 350 351 351 353 353 353 357 360 362 363 366 368 367 367 367 367 368 368 367 367 366 365 364 364 364 366 366
296 297 296 299 295 294 298 298 294 290 293 307 310 313 312 310 310 309 309 309 310 312 311 311 312 313 315 316 317 318 320 320 321 321 320 322 328 332 329 325 326 328 330 332 335 335 342 350 351 351 347 343 344 347 347 346 347 348 349 350 349 352 357 354 355 355 360 362 362 365 367 367 366 367 368 368 368 367 367 366 366 365 364 364 364 365
295 295 297 296 297 297 295 295 288 292 302 304 309 312 315 315 314 311 308 311 312 312 312 314 315 314 316 315 316 318 319 319 322 328 329 326 325 329 326 324 325 325 326 332 346 356 360 354 352 348 349 349 346 344 346 346 347 345 345 348 348 349 351 353 355 354 358 361 362 364 366 365 366 366 366 366 367 366 365 366 366 365 365 364 363 365
297 297 296 292 298 291 294 294 294 303 300 303 305 309 311 311 311 308 302 306 312 321 319 318 321 318 317 319 322 321 325 323 320 320 322 322 326 329 328 326 326 333 344 350 350 349 355 359 357 354 355 351 347 344 344 345 345 345 344 345 346 349 350 352 355 356 358 360 362 364 366 366 364 364 365 365 365 364 364 364 365 365 366 364 363 363
300 295 297 292 293 296 293 292 294 293 291 298 307 313 317 317 317 317 313 311 320 323 322 323 321 324 324 325 328 332 330 320 315 316 321 321 323 329 335 336 340 344 345 346 352 353 356 357 358 358 357 354 351 348 347 346 346 346 346 346 346 348 349 350 354 358 361 362 364 365 367 366 365 365 365 365 364 364 364 365 366 366 366 364 363 362
298 299 298 294 292 294 293 290 291 291 296 307 311 314 315 318 314 321 307 303 322 325 324 325 323 327 328 328 330 333 324 314 312 318 345 344 337 339 340 344 344 345 349 350 351 351 353 358 361 360 360 360 351 348 348 347 347 344 346 347 345 347 350 351 355 359 361 363 365 367 367 366 366 366 366 365 365 365 365 365 366 367 367 365 365 364
294 294 295 292 292 293 293 291 290 295 296 306 312 313 316 318 315 315 298 300 319 324 322 326 324 327 328 330 330 330 326 317 314 330 338 342 340 345 344 347 348 349 350 351 353 356 357 359 360 359 354 351 352 350 351 346 346 348 347 346 345 345 348 351 356 361 363 364 365 368 367 367 367 367 366 366 367 367 366 367 367 367 366 366 364 363
291 292 293 290 291 292 291 292 295 297 303 307 310 315 316 315 313 302 295 313 318 323 324 326 325 327 328 328 329 326 332 333 334 336 338 340 340 344 346 346 347 348 350 351 351 352 356 357 357 355 354 360 358 354 350 346 346 347 349 350 349 347 348 353 358 362 364 364 364 366 366 366 367 367 367 368 368 368 367 367 366 366 366 364 363 363
293 293 293 293 291 290 292 290 291 297 304 307 308 308 313 306 299 299 314 319 323 322 327 326 326 328 329 329 328 329 332 333 335 336 336 338 340 343 344 345 347 349 350 351 352 352 354 354 356 355 353 355 355 351 350 351 349 350 352 352 351 351 351 356 361 365 365 365 365 366 367 367 369 369 367 368 368 367 366 367 367 367 366 364 364 364
293 291 289 289 293 293 293 290 288 284 301 309 311 307 312 301 304 318 320 325 323 327 325 327 328 329 328 328 330 331 331 332 333 334 336 337 338 341 344 344 346 346 347 348 350 351 351 354 353 353 354 354 356 356 354 350 352 354 354 354 356 353 355 357 363 366 365 365 364 365 367 368 367 366 364 364 366 367 366 367 366 366 367 366 365 363
298 292 292 293 296 289 289 288 288 298 307 312 312 306 316 315 320 323 323 316 325 325 327 328 329 329 328 328 328 329 331 332 333 334 335 336 338 340 342 343 344 345 345 346 346 346 350 353 353 353 354 354 357 360 361 357 355 357 357 357 366 361 360 363 365 366 364 364 364 364 366 367 365 365 363 364 365 365 365 365 364 365 366 366 363 359
299 296 295 291 298 294 293 295 303 306 309 311 312 315 319 320 323 324 324 324 324 325 327 326 327 329 329 328 329 330 330 331 331 331 332 334 336 337 339 340 341 342 344 344 343 345 347 348 349 349 351 352 355 357 361 364 361 362 362 363 366 363 362 364 364 363 361 362 363 364 366 366 365 365 364 364 363 364 363 365 366 364 366 365 362 359
300 299 301 298 297 303 304 304 306 306 307 309 313 316 315 317 322 323 323 323 325 327 327 326 327 327 326 328 328 330 330 330 330 331 333 334 335 337 339 340 341 343 343 343 345 344 345 346 347 347 347 349 352 354 357 357 358 357 358 361 363 366 363 362 361 362 361 362 363 363 364 364 364 364 364 364 364 365 365 365 364 363 363 362 359 359
299 299 297 293 300 295 291 304 304 305 308 310 311 313 315 317 321 323 322 324 326 327 328 328 328 327 325 327 326 326 327 329 330 331 332 334 336 337 337 339 339 340 341 341 343 344 345 345 344 343 344 345 349 352 353 354 356 357 359 360 361 364 367 365 362 361 360 360 360 363 363 363 360 360 361 364 362 363 364 364 364 364 362 362 359 359
295 303 296 296 296 293 294 301 303 306 307 309 309 309 310 316 319 320 321 323 325 327 328 328 328 326 326 323 324 325 326 326 326 329 332 333 334 336 337 338 339 340 341 344 345 345 344 343 343 342 343 343 348 351 351 351 353 355 357 357 361 364 366 365 363 361 361 361 361 361 362 360 362 360 359 361 364 361 362 364 364 362 361 361 360 358
298 300 293 297 294 297 301 302 303 304 305 305 307 309 311 315 317 317 319 322 324 325 327 329 329 327 326 325 326 325 325 324 325 327 329 331 332 334 336 337 337 338 340 341 343 344 343 344 342 342 343 344 347 347 348 349 350 353 355 357 361 363 364 363 361 364 364 364 363 362 364 363 363 359 358 361 363 362 362 361 362 363 362 363 364 362
298 293 298 296 293 293 294 299 305 298 299 305 309 315 314 315 315 314 317 320 322 324 326 328 328 328 327 326 326 325 324 324 325 327 328 328 330 332 333 335 337 338 339 340 340 342 342 343 343 343 342 343 345 345 346 346 347 349 351 354 357 358 356 356 357 358 358 358 357 359 359 361 358 360 358 357 357 360 362 333 320 346 361 362 339 323
295 297 297 293 293 293 300 304 307 306 304 305 307 310 312 313 314 314 315 317 321 323 325 327 328 327 326 326 327 324 324 324 325 327 327 327 329 331 332 333 334 336 337 339 339 339 340 341 342 343 343 343 344 344 345 345 347 348 349 350 352 354 356 354 352 352 352 353 354 352 356 355 356 357 356 357 356 356 356 357 360 317 319 330 334 326
Wind_Speed
11 15 15 18 16 16 18 18 15 16 6 7 10 12 13 13 10 10 8 4 5 9 11 11 12 11 8 6 7 9 10 11 11 12 12 14 15 16 16 16 16 17 17 17 19 20 20 20 17 16 15 15 16 16 16 16 16 16 15 14 15 13 13 13 13 13 13 13 12 12 12 11 10 10 9 9 8 8 8 8 7 7 7 6 6 6
12 16 18 18 18 15 16 16 16 16 11 10 9 12 12 13 12 12 10 6 6 8 9 9 8 11 11 11 11 8 11 12 12 13 15 15 16 15 17 17 17 15 11 16 17 19 20 18 19 17 14 16 18 17 17 18 18 17 17 16 15 13 14 14 14 13 13 12 11 10 10 10 9 9 9 9 8 8 7 8 8 7 7 7 7 7
16 20 18 18 17 14 14 16 17 18 15 13 11 10 12 13 13 11 6 6 6 8 10 11 13 13 12 11 9 9 12 10 11 13 14 15 16 15 15 17 16 15 15 17 18 20 19 21 20 17 15 16 18 18 18 18 18 17 16 15 15 14 14 14 14 13 12 12 11 11 10 10 8 9 9 8 8 8 8 8 8 8 7 7 7 7
15 18 20 17 16 16 14 13 15 16 15 13 13 13 14 12 12 11 13 7 8 9 10 9 12 11 11 11 11 10 12 11 12 14 14 14 15 17 17 16 15 17 16 18 19 20 19 20 19 17 16 16 17 17 17 18 19 16 15 15 15 15 15 14 14 14 13 13 12 11 9 9 8 7 8 8 7 8 9 9 9 8 8 9 8 9
18 7 18 18 18 17 16 16 15 13 14 16 16 14 14 13 12 12 6 5 3 8 10 11 13 14 13 14 12 12 13 12 12 12 13 13 13 14 14 15 16 18 18 17 18 19 19 20 21 20 17 17 17 17 17 17 17 13 17 17 17 15 15 14 15 15 12 12 11 10 9 8 8 6 7 8 8 9 9 9 9 9 9 9 9 9
18 12 6 20 19 17 18 16 17 15 14 15 19 19 15 13 13 10 11 7 7 9 10 10 10 14 14 16 16 10 10 12 10 11 13 14 13 13 15 15 16 17 17 18 20 20 20 20 19 19 19 19 17 17 17 17 18 16 15 17 16 14 14 14 15 15 13 12 11 11 10 10 10 10 10 10 10 10 10 10 9 9 10 10 9 9
14 14 12 17 19 19 20 18 17 18 14 14 13 18 19 16 12 13 10 8 11 11 7 9 12 13 11 15 11 8 10 11 11 12 13 13 13 14 14 14 15 17 17 18 18 18 19 20 21 21 20 20 19 18 17 16 17 18 16 17 17 14 13 14 15 17 13 12 12 13 13 12 11 11 10 9 9 9 9 9 10 9 9 10 10 10
14 17 16 17 18 18 17 17 17 17 14 14 9 10 16 19 17 14 13 12 10 9 9 6 9 12 13 13 10 11 12 11 13 13 13 13 15 16 16 16 16 17 18 17 19 20 20 21 22 23 23 20 19 18 17 17 17 19 17 17 17 14 13 13 14 17 14 13 13 13 13 12 12 11 9 10 9 9 8 9 10 9 8 9 10 10
19 19 19 20 18 15 16 17 16 19 16 11 9 7 9 14 17 15 12 12 11 11 13 12 14 12 14 13 12 10 12 12 13 14 15 15 16 17 17 17 18 19 19 19 18 20 21 22 23 21 21 21 19 18 18 17 17 17 17 17 17 16 14 14 16 16 16 14 13 13 12 12 11 10 9 8 9 9 9 9 9 9 9 8 9 10
13 19 20 19 16 14 13 14 16 18 16 15 3 5 7 9 11 13 11 12 12 12 17 15 14 14 15 12 13 14 15 15 13 14 15 16 16 17 17 18 18 18 17 19 20 20 21 21 21 21 20 20 19 18 17 17 16 16 16 17 18 18 15 14 16 16 17 16 13 13 13 14 11 10 9 9 10 10 9 10 10 9 8 8 9 10
8 11 15 14 16 14 12 12 15 17 17 11 11 8 8 9 9 10 11 10 10 17 18 16 16 15 16 13 13 13 13 13 14 13 12 14 16 17 18 18 16 17 17 17 19 20 21 20 20 19 20 20 19 17 18 17 17 17 17 18 19 19 15 16 17 18 17 15 14 13 14 15 14 13 11 10 10 10 10 10 11 10 9 8 9 9
11 10 14 13 17 12 12 12 12 13 15 15 9 10 8 8 8 9 9 11 13 17 11 15 15 17 17 15 13 14 13 14 15 15 14 13 16 16 16 15 17 18 18 18 18 19 20 19 19 19 20 20 20 18 18 18 17 17 17 17 19 19 18 16 17 18 16 16 16 14 14 14 14 13 11 13 12 12 12 11 10 9 8 9 9 9
21 14 12 14 16 19 16 13 12 14 15 14 11 11 12 8 8 10 10 14 17 13 7 12 16 15 24 16 6 10 16 18 15 13 14 14 14 15 17 17 16 17 18 18 18 18 18 19 20 21 21 20 20 19 20 20 18 18 17 19 19 19 19 17 17 19 18 18 17 15 15 14 13 14 14 13 13 12 11 10 10 10 10 9 9 10
16 16 15 16 15 18 17 15 13 14 15 16 14 12 13 12 12 11 12 9 10 12 13 6 10 16 14 10 17 21 15 11 13 13 12 13 13 13 16 16 15 16 18 17 18 18 18 19 20 21 21 20 19 21 21 20 19 17 17 19 20 20 20 18 18 19 18 18 17 16 15 14 14 15 14 13 12 12 11 10 11 12 11 10 11 11
14 17 21 21 15 19 21 18 14 11 14 15 13 13 12 10 9 10 9 13 12 8 10 14 6 9 8 4 8 15 16 15 14 14 13 14 14 12 15 16 17 17 17 17 17 19 20 20 22 20 21 20 20 22 21 19 19 18 18 19 20 20 20 20 20 18 18 17 18 16 15 15 14 14 13 12 12 12 12 11 12 11 11 11 11 11
24 13 11 24 10 20 21 20 16 14 12 14 14 12 13 15 8 9 4 9 9 10 10 14 12 3 8 2 1 0 9 16 16 16 16 16 15 15 14 15 15 16 17 18 19 20 21 21 21 19 19 20 20 22 20 21 19 19 19 19 21 21 21 21 21 19 18 18 16 18 17 18 16 13 13 12 11 12 12 12 11 12 12 11 10 10
12 16 11 21 19 17 21 19 18 16 13 14 15 18 16 11 12 10 6 5 7 5 11 7 11 13 9 11 9 7 8 9 11 13 13 14 14 13 13 14 16 16 17 18 18 18 21 20 20 20 21 19 20 21 22 21 21 22 20 20 21 21 19 21 21 20 19 18 18 18 18 17 17 17 16 15 15 15 12 12 11 11 12 11 10 10
10 10 13 17 24 18 19 21 20 19 12 10 16 14 12 12 12 10 10 7 10 12 10 11 15 10 10 9 11 18 14 13 14 14 14 14 13 13 13 13 14 16 17 20 20 19 20 20 22 20 19 21 21 23 23 23 22 20 20 21 21 21 22 21 20 20 19 20 20 18 19 19 19 17 17 15 14 14 13 12 11 11 11 12 12 10
10 9 11 17 20 18 18 18 18 20 21 13 11 12 14 14 14 11 7 13 11 13 10 12 13 13 11 9 4 10 16 15 13 13 13 14 14 14 14 16 16 16 15 15 16 16 17 19 21 21 23 25 24 22 23 22 22 20 20 21 22 23 24 23 20 20 18 19 16 16 18 20 20 17 16 15 14 13 14 14 13 13 13 12 12 11
9 10 9 14 17 18 16 16 18 17 20 19 11 13 14 9 11 12 13 7 8 11 9 11 13 11 9 10 10 6 9 12 13 13 14 15 15 14 14 14 15 15 14 15 16 17 19 21 23 24 23 23 23 23 21 22 21 23 22 21 21 21 20 20 20 20 20 20 18 17 17 19 18 17 17 17 15 14 14 15 14 14 14 14 12 13
6 10 7 12 18 18 16 15 18 17 18 17 16 14 14 11 6 10 10 13 10 9 10 7 8 6 5 8 12 14 11 10 10 11 12 12 13 15 14 13 13 15 15 15 16 17 19 20 21 22 21 20 20 18 18 20 22 22 21 22 22 22 22 23 22 21 19 18 19 19 20 19 19 20 18 18 16 15 15 14 14 14 13 12 13 13
7 10 12 10 14 16 14 15 17 19 18 17 15 15 15 15 13 13 12 11 13 10 6 7 8 2 4 1 5 8 11 11 11 11 10 12 13 12 11 14 12 12 14 15 16 16 16 17 17 18 17 16 18 19 21 20 20 21 22 21 22 22 21 22 22 20 19 18 18 21 20 21 19 19 18 18 17 17 16 15 15 15 14 15 14 14
5 3 12 10 11 11 13 15 17 17 18 19 17 15 16 15 12 11 10 11 11 12 9 8 7 5 7 5 5 4 2 5 7 9 10 9 9 10 10 9 8 8 9 10 11 11 12 13 14 16 17 18 20 20 21 20 19 20 22 22 20 22 23 22 22 21 19 19 19 21 20 20 19 18 20 20 18 19 18 17 16 15 15 15 14 14
5 6 9 11 8 8 11 12 18 19 20 20 19 18 17 18 17 12 10 6 9 10 11 9 10 5 4 4 5 8 8 7 5 6 7 8 8 7 6 6 5 6 8 8 8 9 9 10 12 13 17 18 18 18 20 20 20 20 20 21 20 23 24 23 21 20 20 19 21 21 20 20 19 21 21 21 19 20 19 17 17 16 17 17 15 15
9 12 11 11 8 6 8 9 13 17 17 15 15 18 19 17 19 16 12 9 11 12 13 10 11 6 7 6 4 4 6 5 3 5 4 4 4 6 5 2 3 5 6 8 9 9 10 12 14 15 16 16 17 18 18 19 20 20 20 21 21 21 23 21 20 20 21 21 22 22 21 22 21 21 21 21 19 21 20 20 18 16 18 17 17 16
5 9 15 15 17 16 17 17 18 19 18 13 15 19 22 22 22 17 15 12 11 10 14 11 8 2 9 4 7 5 4 3 1 3 1 3 4 4 3 2 3 4 5 6 8 10 12 11 11 13 15 14 16 17 17 17 19 20 20 21 21 21 20 21 20 21 21 20 21 21 23 22 21 22 23 22 21 21 21 20 19 18 17 18 18 17
4 3 9 9 9 12 4 4 8 5 15 17 19 19 20 21 20 18 12 13 13 10 13 12 9 5 10 9 9 8 6 5 3 3 3 3 2 2 2 1 3 4 6 7 8 7 8 10 13 14 15 16 17 17 17 18 18 18 17 19 20 19 19 19 20 20 20 20 21 20 22 22 22 20 21 21 20 19 19 20 20 20 18 17 18 18
4 7 5 3 1 3 3 4 6 7 8 19 21 20 18 20 21 20 18 14 8 9 13 10 12 13 9 10 7 4 3 4 4 6 7 4 3 5 5 2 4 5 5 5 6 9 11 12 12 13 14 16 16 17 17 17 18 18 18 19 19 19 18 17 19 20 20 19 19 19 21 21 20 20 19 19 18 19 19 19 19 19 17 17 18 18
2 8 4 5 1 2 3 2 3 1 1 1 8 14 21 19 20 23 20 17 14 13 9 7 12 15 14 13 9 7 5 5 5 7 6 6 7 5 1 6 9 4 7 8 8 8 10 11 11 13 13 14 16 18 19 18 18 17 17 18 18 19 20 18 19 20 20 19 19 19 19 18 17 17 17 17 17 18 18 18 17 17 17 16 16 15
6 2 3 2 4 2 3 2 2 4 2 6 8 7 9 14 17 17 16 17 20 15 11 12 9 13 12 14 15 14 12 11 10 10 12 13 13 10 9 9 10 7 3 4 7 9 10 10 9 11 12 13 16 17 18 17 17 19 19 19 19 19 19 17 18 19 19 20 19 17 17 17 16 16 17 17 18 18 18 18 17 18 18 17 17 15
6 4 3 5 4 5 6 5 3 5 3 7 9 10 11 10 10 12 12 14 14 15 17 16 16 15 11 9 10 11 9 8 8 10 11 13 16 17 16 13 11 10 9 6 5 7 6 7 8 9 12 14 15 17 17 16 16 17 19 18 19 19 19 18 17 18 19 19 18 16 16 16 16 16 17 18 17 17 18 18 16 16 16 17 16 16
6 3 1 3 5 7 7 8 5 3 7 9 11 13 13 14 15 12 12 11 13 13 13 13 13 12 8 9 6 7 8 10 11 12 12 12 14 15 15 14 13 12 13 12 9 3 5 6 8 10 12 14 15 17 17 16 17 17 19 19 19 19 18 18 19 19 18 18 16 16 17 17 16 16 17 17 18 17 17 16 17 16 16 16 17 15
4 5 3 2 7 7 8 5 4 5 6 12 16 16 16 17 16 13 14 14 14 12 14 16 14 8 9 9 12 10 11 13 13 13 12 14 14 15 16 16 15 15 15 13 12 6 6 7 8 10 11 12 13 15 18 17 16 17 18 17 17 14 16 19 19 17 16 16 16 16 16 15 16 17 16 17 17 16 15 16 17 17 17 17 16 15
4 4 5 2 5 6 5 3 2 6 12 12 2 11 18 18 16 17 14 15 15 15 13 12 10 7 9 9 9 10 11 11 10 11 11 11 12 13 15 15 15 16 16 15 13 9 6 5 5 6 8 10 11 14 14 16 18 17 16 16 14 16 16 17 17 16 15 15 15 15 15 15 16 16 17 16 16 15 16 17 18 17 16 15 15 15
5 4 6 2 5 6 3 3 6 12 10 6 3 4 2 8 8 11 10 12 13 13 15 16 13 12 10 7 6 7 8 9 11 13 13 12 8 8 11 13 14 13 13 13 13 13 8 5 5 6 7 8 9 10 12 14 16 14 14 16 17 17 15 16 17 16 16 16 17 16 16 16 17 16 15 15 15 15 16 17 16 16 16 15 16 16
6 5 5 6 5 6 6 7 10 8 7 2 3 4 4 4 5 5 13 13 15 15 10 10 9 10 11 12 13 12 12 11 9 8 9 13 14 13 13 13 14 15 14 10 8 5 4 6 6 7 6 6 8 10 12 13 13 14 16 16 17 17 17 17 16 17 16 17 18 18 18 18 17 16 16 16 16 17 17 17 17 18 16 15 15 15
10 6 5 7 5 8 8 8 11 3 4 5 5 5 4 6 6 7 10 12 6 4 1 5 6 9 12 10 7 8 7 7 9 11 13 16 15 14 14 14 13 10 7 6 7 8 6 6 7 8 7 7 9 9 10 10 12 13 14 16 16 17 17 17 17 18 17 18 18 18 18 18 18 17 17 17 17 18 18 18 18 17 15 16 16 16
9 9 4 7 6 8 8 8 8 9 11 8 4 8 4 5 3 2 5 3 7 4 2 2 5 5 7 6 5 5 7 8 11 10 12 16 15 13 10 8 7 6 7 7 6 7 8 8 8 8 9 9 9 10 8 9 11 12 13 15 15 17 17 18 18 18 17 16 16 16 16 16 16 17 17 17 18 19 19 18 16 16 15 16 16 17
12 10 9 8 8 8 10 10 9 9 5 6 7 7 7 2 2 3 2 9 7 4 3 1 4 4 5 5 5 5 5 9 10 8 7 11 6 3 4 3 4 4 5 5 7 8 8 7 7 9 9 9 9 8 9 10 12 13 13 14 15 16 16 17 17 17 17 15 14 13 14 15 16 16 17 18 19 18 18 17 16 14 13 15 15 15
12 10 9 10 11 9 9 10 11 6 5 6 6 5 6 3 2 5 7 6 9 4 3 2 4 5 6 5 5 5 6 8 8 3 9 9 7 5 4 5 5 5 4 5 4 5 7 7 8 9 10 10 8 7 8 10 10 11 11 13 14 15 16 17 14 11 11 11 13 13 14 14 16 17 17 18 17 15 15 13 13 15 15 15 14 14
11 10 10 12 10 10 11 9 7 6 4 1 5 5 5 2 1 6 6 5 4 2 1 2 5 5 5 6 4 6 4 5 8 9 8 8 8 5 4 4 5 5 5 5 6 6 6 4 4 5 4 3 1 3 6 8 9 10 10 11 12 14 13 11 10 11 12 12 13 14 15 14 15 16 16 15 13 13 13 12 14 14 14 15 14 14
11 8 9 10 11 11 11 12 10 7 2 2 8 10 3 4 6 5 4 3 2 3 1 4 4 4 4 6 6 7 8 11 13 12 11 9 7 6 6 6 6 5 4 6 5 4 5 4 4 4 2 1 1 4 5 6 8 9 9 11 12 12 9 8 10 10 12 14 14 14 14 14 13 13 12 11 11 11 12 12 12 12 13 12 12 14
7 10 11 11 9 9 10 10 8 9 5 7 7 3 4 9 4 6 3 2 2 3 4 3 3 3 3 6 7 9 11 11 11 10 9 9 9 6 5 6 6 7 7 6 6 7 6 3 4 4 6 4 4 2 2 6 7 8 8 9 10 9 9 8 9 10 12 12 13 13 12 12 13 12 11 12 13 13 12 12 13 13 12 13 14 15
1 7 7 10 9 11 10 11 6 1 8 7 7 4 6 8 9 8 8 6 1 4 4 4 3 4 6 7 9 9 10 10 9 9 10 9 7 6 3 3 4 5 4 5 6 6 7 3 4 5 6 7 6 4 3 3 6 6 7 5 3 5 6 7 7 8 9 10 11 11 11 11 13 13 12 13 13 13 13 13 13 12 11 12 13 14
2 2 5 4 5 4 5 5 7 14 11 7 7 7 10 12 10 9 7 7 7 3 3 5 4 5 7 7 8 8 7 7 8 8 8 7 6 5 4 3 3 3 2 4 5 5 4 5 5 6 7 7 8 7 7 5 5 7 6 5 2 3 4 6 6 7 8 9 10 10 10 10 11 12 12 12 13 12 13 14 13 12 12 12 13 14
7 2 3 5 6 7 13 14 13 13 14 11 9 8 10 13 12 10 9 8 4 6 5 5 5 6 5 5 6 7 7 6 6 7 6 5 5 3 3 2 1 2 2 3 4 4 4 5 7 7 8 9 8 7 7 7 7 7 5 3 2 1 3 5 6 7 8 8 9 10 10 11 11 12 12 13 12 12 12 12 13 12 12 13 14 14
7 3 4 4 7 6 6 2 10 12 14 13 12 12 10 9 9 9 9 8 7 7 6 4 4 4 3 4 3 4 3 3 4 4 4 4 3 2 2 1 2 3 4 4 4 4 4 5 7 8 9 9 9 7 7 8 7 6 4 3 0 1 2 3 5 6 7 8 8 8 9 10 10 10 11 12 11 11 11 11 11 11 12 12 14 13
3 6 5 9 10 10 11 12 15 16 15 16 13 11 10 11 12 12 10 9 9 7 7 4 2 1 1 1 3 4 2 3 5 6 3 2 3 2 2 2 3 4 5 5 5 5 5 6 7 8 8 8 8 7 8 8 8 7 5 4 3 1 3 3 3 5 6 7 6 6 7 8 8 8 8 9 10 10 10 10 11 11 13 12 13 13
8 7 8 5 8 10 13 14 15 16 17 18 17 14 8 6 10 13 13 13 10 9 7 3 0 2 2 2 1 3 4 5 5 6 4 4 4 4 4 4 4 5 5 6 7 7 6 6 7 8 8 8 7 8 7 8 7 6 6 5 5 5 5 4 5 5 5 4 4 4 4 5 5 7 7 7 9 9 9 10 11 12 11 13 9 9
8 10 9 9 11 12 11 9 6 9 9 8 7 4 8 10 11 13 14 14 12 10 9 6 2 2 3 4 4 2 3 4 5 5 4 5 5 5 5 4 4 4 5 5 5 7 7 7 7 7 8 7 7 7 7 7 7 7 7 6 5 5 7 8 8 7 5 4 4 4 3 3 4 4 5 7 8 7 5 10 12 9 4 3 8 9
10 10 9 11 10 11 10 10 7 9 12 14 14 13 12 12 12 13 13 13 13 10 10 8 3 4 4 4 4 4 3 3 4 4 5 5 5 5 5 6 6 5 5 5 6 7 6 6 6 8 8 7 7 7 7 7 7 7 7 7 6 5 6 7 7 6 6 5 5 4 3 3 2 2 3 4 4 4 2 1 6 7 5 2 1 2
Wind_Direction
170 207 200 209 211 206 209 215 219 222 232 261 229 223 225 228 231 219 204 192 208 253 242 240 243 250 247 240 213 200 201 207 210 211 206 203 200 196 195 196 197 194 191 182 183 186 187 187 186 188 186 188 188 189 186 185 186 186 184 182 183 184 185 186 188 192 196 197 198 203 204 204 201 206 207 209 212 212 211 202 198 193 201 198 201 204
194 216 216 211 212 211 209 210 219 229 227 234 228 225 230 228 235 224 222 177 216 248 247 245 253 245 249 247 249 210 202 207 208 212 211 206 204 202 200 197 196 193 188 180 181 186 186 188 186 186 188 188 188 189 187 188 188 187 188 189 187 184 188 191 190 191 196 198 198 195 199 199 195 194 200 203 206 210 207 196 196 197 205 201 201 203
203 218 215 209 210 216 218 211 213 221 223 226 236 231 237 232 235 235 197 208 231 251 252 251 257 255 255 251 240 220 206 208 214 216 214 207 205 203 203 201 192 187 188 187 185 184 187 187 185 185 187 190 192 188 189 189 188 188 191 192 189 188 188 193 191 192 194 195 198 197 193 200 198 194 198 204 202 204 208 194 194 200 200 201 204 205
209 222 215 209 207 213 215 214 206 213 226 229 225 231 232 230 228 215 209 209 232 243 262 261 271 268 261 250 243 227 212 207 213 217 216 211 210 207 204 198 194 191 186 189 187 186 186 186 186 186 189 189 189 189 189 189 189 189 193 192 191 191 192 191 192 194 192 193 192 196 197 198 210 197 192 198 201 201 208 204 194 197 199 199 207 205
209 202 204 210 210 204 202 196 202 210 221 226 233 233 235 231 226 247 139 179 152 239 250 265 268 265 252 250 237 217 211 209 209 211 215 216 215 213 208 204 199 193 189 189 188 188 186 187 189 188 188 187 190 190 189 189 188 192 192 192 192 192 192 192 191 190 189 188 188 189 194 195 202 205 198 195 201 201 202 209 200 199 197 199 206 208
222 210 179 202 207 201 208 212 212 216 226 226 226 232 239 239 245 227 252 254 239 238 219 243 260 252 246 244 246 220 187 205 199 204 208 210 213 207 209 206 201 200 193 191 190 190 189 188 188 189 190 192 191 192 191 189 188 190 191 192 192 194 194 194 190 187 187 186 185 183 186 191 196 201 199 200 200 198 199 208 204 196 198 198 204 207
224 202 191 201 198 203 211 221 211 210 224 227 222 218 232 241 240 244 231 226 242 247 225 218 247 257 247 246 229 211 199 197 188 204 204 203 208 207 208 207 202 201 196 194 194 192 191 189 188 191 193 194 194 193 190 189 189 190 190 190 191 193 194 194 192 190 188 187 190 191 195 200 202 203 204 204 204 205 203 206 205 199 197 199 204 207
213 207 188 197 199 209 213 219 209 206 220 231 224 221 219 223 231 232 237 245 261 266 260 189 232 264 261 247 221 197 213 194 188 196 204 202 204 206 208 207 204 202 200 194 193 193 195 192 192 192 193 194 195 189 189 191 189 188 189 186 189 191 193 193 193 193 192 189 191 195 200 204 208 210 205 199 204 204 205 202 203 199 201 196 203 210
197 201 191 194 201 204 214 212 200 200 215 223 211 224 227 219 224 231 239 247 248 252 245 230 225 247 251 250 247 240 220 207 205 203 201 207 204 206 208 210 206 203 199 198 194 193 195 196 196 193 192 195 193 190 190 191 189 187 187 186 187 191 191 192 192 190 195 194 193 196 199 206 211 212 208 198 197 199 199 199 196 199 202 197 199 207
198 212 196 200 197 209 211 206 207 198 214 219 213 202 224 219 226 230 236 239 242 241 244 233 226 246 252 243 238 218 230 228 225 219 214 203 205 204 209 211 210 204 201 201 200 196 196 197 196 196 194 190 193 193 191 190 187 186 185 186 186 189 191 192 192 194 195 196 196 197 201 205 205 204 204 201 193 195 192 196 196 198 202 205 203 204
200 203 206 204 208 214 202 207 207 203 214 213 191 203 194 213 220 222 232 240 245 245 240 234 232 239 262 240 235 226 216 223 231 228 222 208 204 204 208 209 207 204 201 203 202 200 197 195 195 192 194 194 193 193 190 190 189 187 186 186 189 191 191 196 199 200 200 201 201 201 201 204 204 200 199 198 197 195 194 198 198 198 200 206 210 210
194 194 202 207 214 214 211 207 207 209 202 214 192 211 221 214 218 219 219 217 237 244 235 227 230 228 252 245 232 239 240 219 226 236 226 206 204 202 203 206 206 204 202 200 201 202 197 191 192 192 194 193 193 194 193 192 189 188 187 186 189 189 190 193 202 204 201 207 208 204 202 205 205 200 199 200 199 196 198 198 200 200 201 204 209 212
220 206 204 204 204 210 196 214 192 194 199 206 203 206 210 190 184 209 198 214 223 240 228 225 221 229 234 246 259 232 227 227 224 232 231 219 211 202 198 201 202 202 201 199 199 199 195 191 189 192 194 191 191 193 194 194 190 188 188 187 189 190 188 191 197 204 202 206 210 210 206 206 208 206 203 201 202 198 199 199 199 197 202 200 206 209
222 214 199 203 199 200 203 202 186 194 196 198 203 199 202 195 195 209 208 228 242 229 230 232 218 243 259 264 228 237 233 235 223 223 228 231 228 206 199 200 201 200 201 200 198 199 196 192 190 191 191 190 191 193 193 193 192 189 188 188 188 190 188 189 195 199 199 205 210 211 208 207 209 213 208 206 205 203 202 199 200 201 201 201 206 209
197 201 208 191 203 183 204 209 199 197 188 199 203 206 208 216 202 204 209 213 224 236 199 195 211 234 224 211 228 222 223 218 221 230 231 229 228 219 202 198 200 199 200 199 198 198 198 195 192 190 188 189 191 192 192 193 192 188 190 189 189 189 189 189 191 194 197 203 209 210 209 210 211 211 210 209 207 205 204 203 201 202 204 206 207 210
214 224 193 194 190 180 199 198 208 186 197 197 200 211 216 217 218 236 215 237 227 218 217 192 211 188 210 84 78 213 207 212 221 225 225 220 220 220 206 200 198 199 199 198 200 200 198 195 193 191 189 189 190 190 191 191 190 191 191 188 189 188 186 188 190 192 195 202 205 209 210 213 211 211 212 213 204 206 205 203 202 201 203 207 207 207
202 222 172 180 199 191 194 190 202 187 200 183 197 208 210 204 219 236 253 293 327 282 238 201 223 244 282 269 246 212 205 207 203 210 213 214 212 211 204 198 198 199 198 198 200 199 198 196 194 193 190 190 190 189 191 190 190 191 188 187 189 189 188 189 191 192 195 198 202 204 208 211 213 213 212 212 204 203 203 203 204 204 205 205 207 204
212 205 172 173 192 194 190 192 197 193 221 169 205 204 197 213 230 224 243 199 221 236 235 215 230 226 216 266 205 209 211 207 208 210 213 210 207 203 201 202 199 200 198 199 200 197 195 195 195 195 193 193 191 190 190 189 189 189 190 188 186 187 190 191 190 192 192 195 199 200 203 209 213 213 212 213 206 200 201 203 206 207 205 207 206 205
218 203 169 185 186 180 184 187 200 202 210 221 206 175 193 182 205 210 232 227 213 224 239 230 235 244 231 222 131 200 211 211 207 206 213 210 207 206 203 203 204 204 202 200 200 196 195 197 197 195 195 194 194 192 190 188 187 188 191 192 190 190 190 189 189 190 192 195 198 201 203 206 210 213 215 215 208 200 201 205 203 206 207 207 205 205
198 227 155 183 191 173 184 187 201 194 199 223 210 199 203 206 208 195 207 240 233 241 232 231 222 241 217 239 232 208 203 215 210 206 213 216 209 208 208 205 200 200 201 201 199 198 198 198 198 198 199 197 193 191 190 189 189 191 191 191 194 194 192 190 191 189 192 194 196 197 199 202 205 207 212 215 207 203 205 206 206 206 206 206 203 204
224 228 236 167 188 171 195 194 204 188 187 193 203 207 189 217 201 222 203 219 220 236 240 248 232 228 238 213 220 222 214 206 208 211 210 218 219 212 213 212 199 196 198 201 201 200 200 200 200 200 200 200 196 192 192 191 193 195 192 192 194 192 192 193 193 192 194 193 196 195 197 199 200 202 204 206 205 206 206 204 206 207 208 201 205 203
229 194 226 158 185 192 203 188 203 194 194 196 196 205 194 193 195 198 212 204 230 233 235 239 246 273 79 229 194 225 221 226 227 230 217 216 221 223 216 212 208 199 200 201 203 203 202 201 201 200 197 199 198 195 194 194 194 194 194 195 195 194 194 195 194 194 193 194 195 198 197 198 197 199 203 206 206 206 207 206 204 205 203 205 203 203
304 249 216 198 194 196 209 184 200 203 194 198 197 203 195 202 206 201 210 195 212 232 249 251 270 252 109 116 129 100 148 196 212 219 231 229 233 219 217 218 194 201 206 207 210 208 204 199 200 199 196 197 200 200 197 195 196 197 198 197 195 195 196 196 195 194 191 193 195 198 198 198 199 199 201 204 204 206 206 206 205 203 204 205 204 203
249 218 206 226 196 202 210 177 192 205 198 204 208 209 200 207 203 209 218 203 213 209 216 219 237 234 141 143 255 247 238 234 215 212 221 225 218 224 244 259 239 190 189 198 204 206 207 203 195 198 197 199 199 200 199 197 198 198 198 198 196 197 197 196 194 192 192 194 197 197 196 199 200 200 201 203 206 206 207 206 204 203 205 205 207 205
206 206 224 198 206 172 185 181 201 206 212 213 206 205 211 209 208 215 224 230 236 219 219 211 227 222 158 175 174 158 171 169 185 182 206 232 222 237 238 192 183 176 177 191 194 195 195 198 194 197 199 197 198 199 199 199 200 199 198 197 198 199 197 195 193 192 193 195 197 196 197 199 200 202 204 205 205 206 207 208 207 204 205 205 209 208
267 199 198 209 198 193 188 191 195 194 204 205 217 203 209 211 206 206 214 213 231 216 223 225 222 109 102 159 150 171 173 182 261 291 232 203 230 261 287 93 132 179 191 202 196 195 199 198 196 194 199 199 198 200 199 202 201 202 201 200 199 198 195 194 193 193 192 195 197 197 198 200 201 204 205 205 206 207 207 209 209 207 204 207 208 207
238 269 221 237 245 227 218 48 28 301 190 207 200 213 203 209 210 213 221 221 216 213 231 227 239 160 160 162 183 167 160 164 170 217 230 243 263 136 128 212 241 202 201 205 197 198 195 200 203 200 198 199 200 200 201 202 205 205 203 203 202 199 195 194 193 194 195 195 197 197 199 199 201 202 205 204 206 207 208 210 210 209 207 204 207 206
231 202 204 267 275 13 11 344 17 348 214 198 203 204 214 206 207 214 214 220 205 219 231 218 211 236 187 165 167 185 224 239 255 274 268 237 47 346 349 333 241 216 200 182 186 192 200 204 207 207 204 204 203 203 204 203 204 204 204 205 203 200 197 194 194 194 197 196 197 198 200 200 199 201 202 203 202 205 207 208 209 208 207 205 206 208
312 220 145 254 219 352 322 346 352 295 287 346 219 203 204 210 210 216 221 226 221 223 237 198 214 223 233 234 225 233 236 259 258 269 290 316 307 285 274 330 323 245 184 184 188 197 204 205 208 211 213 210 210 210 208 207 206 205 204 204 202 202 201 196 194 195 196 197 198 199 198 197 198 199 199 199 199 202 206 208 207 207 206 205 207 207
305 184 37 253 296 264 219 225 216 209 192 218 222 221 218 214 218 225 231 230 230 235 241 250 238 235 231 242 249 255 256 258 266 275 281 277 277 301 309 298 297 262 219 208 195 197 204 211 208 206 209 209 211 211 210 208 207 205 204 203 200 201 201 196 196 196 196 198 200 197 193 193 194 194 195 196 199 200 202 206 205 206 206 206 206 207
314 83 355 332 266 220 210 210 178 226 225 239 233 236 230 230 232 228 233 234 245 247 241 239 244 249 238 250 265 264 259 263 267 268 274 288 294 292 291 285 276 269 272 260 203 191 193 205 207 206 206 206 207 208 209 209 208 207 208 205 203 201 200 196 196 197 198 200 199 192 188 189 192 190 193 196 196 197 199 202 204 204 205 206 205 207
314 347 317 275 245 211 183 207 200 239 248 247 241 231 226 222 224 216 222 221 226 230 243 249 249 243 244 247 254 265 273 274 272 273 272 270 273 280 278 274 266 256 262 283 293 234 182 200 204 210 211 210 208 206 208 209 208 206 210 206 205 202 197 197 197 198 199 200 192 188 187 188 187 189 191 191 196 196 197 198 203 204 203 203 204 204
331 329 286 226 220 210 144 191 221 251 260 246 230 224 222 223 229 228 227 224 226 228 233 234 241 251 257 254 256 244 249 255 256 258 266 268 271 276 278 277 274 277 286 292 295 269 247 238 221 210 220 217 213 211 210 207 207 209 209 208 205 200 198 201 200 198 198 196 191 187 187 184 186 188 188 191 192 193 194 196 201 204 203 205 204 203
278 282 278 304 246 208 120 217 275 228 224 236 255 212 214 216 211 220 221 221 221 216 238 247 258 255 242 239 242 252 256 259 263 263 261 265 267 267 270 274 281 288 290 293 294 288 277 243 243 241 225 225 223 218 213 209 211 211 207 205 200 202 202 200 202 196 195 193 193 188 186 187 188 189 191 188 188 190 196 197 202 204 205 205 204 206
280 261 251 266 247 246 243 245 217 221 228 77 113 73 133 218 230 237 239 236 233 225 233 242 245 250 258 262 272 280 284 281 272 274 276 273 283 278 275 277 280 282 285 285 280 277 264 243 246 246 246 243 237 226 219 215 215 210 205 201 199 198 198 199 200 199 194 192 192 190 188 190 193 191 189 189 189 192 198 201 203 204 207 208 208 208
248 240 250 239 246 269 265 215 216 210 46 169 108 83 88 157 196 228 243 238 241 246 258 261 255 256 254 255 258 262 265 279 292 285 276 273 269 265 267 270 270 272 274 278 292 304 288 268 263 266 266 255 239 232 224 220 212 208 207 202 202 200 197 197 197 200 197 194 192 192 191 190 190 189 189 190 191 195 199 202 203 205 205 209 211 212
240 260 254 252 220 243 229 232 234 19 294 210 158 151 163 165 153 213 225 216 190 75 265 258 271 268 270 278 291 282 315 316 281 270 266 263 256 249 254 262 268 271 279 284 284 284 290 282 269 269 261 245 246 239 228 219 211 210 206 201 201 198 198 195 195 199 199 198 194 191 189 188 187 188 189 191 193 198 202 204 206 207 203 207 210 210
219 229 203 241 234 232 243 241 237 239 245 225 137 111 90 91 33 26 293 191 113 101 76 245 254 270 279 290 290 315 306 280 268 264 259 256 247 241 243 255 264 275 279 287 293 287 277 267 264 254 250 251 241 241 236 217 210 206 206 204 199 197 198 197 198 197 198 198 195 191 187 186 186 187 189 190 196 199 202 204 204 205 201 206 207 210
211 222 251 241 242 216 226 241 233 233 231 68 119 117 94 121 88 134 178 238 110 85 89 302 276 292 297 309 317 317 261 249 254 258 18 357 6 348 285 268 273 289 306 306 303 298 299 301 289 278 257 248 245 230 222 218 209 206 205 204 202 198 200 203 203 199 197 194 189 184 177 182 187 189 190 194 199 201 201 201 202 201 200 208 210 214
206 210 213 224 234 232 235 226 232 228 245 160 147 104 104 98 121 217 234 220 113 61 34 330 312 311 314 317 307 275 247 243 248 17 1 348 348 350 332 320 313 318 305 311 312 333 315 298 280 256 245 232 227 229 212 208 207 210 202 200 203 203 205 208 206 200 194 187 185 179 179 185 191 194 195 199 201 200 202 199 197 200 201 205 209 213
200 207 211 220 216 222 232 246 255 243 249 159 179 125 105 44 289 216 228 75 158 12 321 322 296 311 307 301 295 269 247 284 314 322 332 333 313 326 333 322 309 313 318 332 355 344 313 301 300 305 320 17 334 245 214 202 199 204 199 196 203 212 209 203 198 193 190 185 184 185 190 194 196 197 200 201 198 197 198 199 203 202 203 207 209 213
195 204 210 221 224 221 216 231 236 260 278 314 222 248 193 263 213 237 65 227 193 256 199 270 297 298 307 283 281 276 289 295 295 298 296 307 321 322 320 327 331 336 350 6 350 353 338 331 344 310 357 19 213 214 213 203 200 199 192 193 204 211 211 197 189 186 183 184 189 192 194 197 198 200 201 198 195 197 201 205 206 206 209 213 213 215
200 203 203 204 216 227 229 229 224 226 116 359 6 234 221 238 350 19 313 169 255 282 295 291 292 311 305 289 285 289 288 289 292 299 311 307 301 309 323 338 340 342 349 355 356 6 351 4 354 5 358 9 18 25 175 189 188 194 194 201 202 201 201 197 188 187 186 186 192 194 193 194 192 191 198 200 200 199 201 205 208 211 211 215 226 228
164 233 216 211 200 220 211 216 209 121 20 5 356 290 17 318 347 340 340 293 62 310 308 308 302 337 319 297 293 294 294 290 291 296 297 287 284 284 294 322 327 319 330 353 1 358 339 38 21 22 20 13 16 26 39 157 170 180 180 156 116 175 178 184 188 189 190 191 194 192 192 192 195 198 202 201 200 202 206 209 210 211 212 212 217 228
169 256 19 285 3 304 258 259 349 327 304 326 331 331 340 330 330 347 319 320 314 327 357 289 311 301 299 299 288 290 292 289 292 294 293 301 301 295 292 311 340 320 329 4 8 12 17 36 27 28 29 27 26 27 34 53 114 117 97 66 86 144 166 177 180 186 194 195 193 191 191 193 198 200 201 200 200 200 204 207 205 209 210 213 217 224
117 331 334 291 276 299 281 273 280 281 291 301 335 329 330 328 329 328 337 323 337 324 320 315 318 306 301 297 287 275 279 289 291 285 275 275 278 276 275 287 346 5 14 21 22 29 40 52 49 42 39 38 36 41 40 49 62 69 57 46 51 143 174 190 189 192 196 195 194 193 194 194 199 201 201 200 202 203 206 206 207 211 210 214 223 227
269 197 187 273 290 293 273 254 264 275 286 306 308 316 311 310 320 334 327 330 323 316 305 303 306 312 306 323 354 340 313 326 290 278 286 280 273 284 304 341 25 35 33 28 25 32 55 56 56 48 44 45 41 46 55 59 66 72 73 60 81 157 181 193 190 192 194 197 198 196 201 200 203 204 204 205 209 210 210 211 215 214 217 217 227 222
196 84 261 241 260 255 268 288 297 295 294 292 288 293 307 308 309 316 320 314 315 306 294 305 298 345 288 1 1 336 337 5 356 339 311 344 359 3 12 19 29 52 55 43 42 45 65 68 68 63 60 58 54 53 55 57 57 49 48 55 30 51 155 157 173 186 186 191 196 196 199 204 205 208 210 203 208 213 214 219 223 225 226 224 230 231
290 303 274 280 268 270 270 266 269 279 279 275 274 267 281 312 314 322 314 308 307 294 280 243 10 73 79 98 88 31 31 34 5 333 340 19 17 24 29 34 28 32 36 47 44 39 53 65 74 75 72 65 58 58 57 55 54 56 53 46 34 30 60 94 139 140 136 147 162 172 182 194 193 208 216 213 215 222 231 231 230 231 232 237 241 256
251 251 259 263 261 257 256 261 275 261 257 255 254 350 341 326 316 312 315 309 303 305 295 268 184 102 73 62 57 57 46 31 9 341 30 19 23 28 32 24 33 46 55 58 58 53 57 57 70 77 73 71 67 69 67 64 63 61 57 54 63 78 86 79 82 95 110 136 152 169 147 164 187 191 216 219 220 218 195 65 72 64 5 338 38 65
255 262 267 260 257 258 257 258 268 288 288 284 290 296 305 312 306 305 308 310 300 296 300 288 226 136 96 84 77 75 68 49 30 18 40 46 33 35 42 43 44 53 62 63 80 76 65 61 63 69 70 70 72 71 66 63 59 52 50 54 56 77 101 108 109 112 113 109 105 99 115 145 151 174 209 228 233 232 282 204 77 77 106 166 305 36